FW2545 Weather Reports


Display with metric or nautical units.
time (UTC)temp
F
wind
direction
speed
MPH
gust
MPH
rain 1hr
in
rain 24hr
in
rain mn
in
humidity
%
barometer
mb
20260905183043 60 305 1.0 4.0 0.00 0.02 0.00 78 1020.7
20260905181543 58 321 1.0 4.0 0.00 0.02 0.00 81 1020.9
20260905180051 58 318 2.0 5.0 0.00 0.02 0.00 83 1020.9
20260905180044 58 327 2.0 5.0 0.00 0.02 0.00 84 1020.9
20260905171542 57 288 1.0 4.0 0.00 0.02 0.00 88 1020.8
20260905170042 55 114 0.0 3.0 0.00 0.02 0.00 93 1020.7
20260905163042 53 202 0.0 0.0 0.00 0.02 0.00 94 1020.7
20260905161541 52 202 0.0 0.0 0.00 0.02 0.00 94 1020.7
20260905153043 49 202 1.0 3.0 0.00 0.02 0.00 95 1020.5
20260905151543 48 202 0.0 2.0 0.00 0.02 0.00 95 1020.5
20260905150041 47 202 0.0 2.0 0.00 0.02 0.00 95 1020.5
20260905144543 45 202 2.0 4.0 0.00 0.02 0.00 95 1020.3
20260905141541 44 203 1.0 3.0 0.00 0.02 0.00 94 1020.0
20260905134543 44 207 1.0 4.0 0.00 0.02 0.00 94 1019.9
20260905133042 44 202 2.0 4.0 0.00 0.02 0.00 94 1019.7
20260905131618 45 207 1.0 4.0 0.00 0.02 0.00 94 1019.7
20260905130044 45 247 0.0 2.0 0.00 0.02 0.00 94 1019.6
20260905124539 45 247 0.0 0.0 0.00 0.02 0.00 94 1019.5
20260905123043 46 204 0.0 2.0 0.00 0.02 0.00 94 1019.5
20260905121542 46 217 2.0 4.0 0.00 0.02 0.00 94 1019.6
20260905120044 47 269 0.0 3.0 0.00 0.02 0.00 94 1019.5
20260905114543 47 214 1.0 4.0 0.00 0.02 0.00 94 1019.6
20260905113042 47 247 0.0 2.0 0.00 0.02 0.00 94 1019.5
20260905111541 48 247 0.0 2.0 0.00 0.02 0.00 94 1019.4
20260905110041 48 202 0.0 0.0 0.00 0.02 0.00 93 1019.5
20260905103045 49 223 0.0 3.0 0.00 0.02 0.00 93 1019.5
20260905100043 49 227 0.0 1.0 0.00 0.02 0.00 93 1019.6
20260905094700 49 210 0.0 2.0 0.00 0.02 0.00 93 1019.6
20260905093042 49 177 0.0 3.0 0.00 0.02 0.00 93 1019.4
20260905090042 49 198 1.0 3.0 0.00 0.02 0.00 93 1019.4
20260905084701 49 241 1.0 3.0 0.00 0.02 0.00 93 1019.3
20260905083041 48 247 0.0 0.0 0.00 0.02 0.00 93 1019.2
20260905080117 48 247 0.0 1.0 0.00 0.02 0.00 92 1019.1
20260905064643 48 270 1.0 2.0 0.00 0.02 0.02 90 1018.4
20260905061641 49 263 1.0 2.0 0.00 0.03 0.02 90 1018.3
20260905060037 49 204 0.0 2.0 0.00 0.03 0.02 90 1018.4
20260905054529 50 202 0.0 2.0 0.00 0.03 0.02 89 1018.4
20260905053143 51 164 1.0 4.0 0.00 0.03 0.02 88 1018.4
20260905051715 0 0 0.0 0.0 0.00 0.03 0.02 100
20260905044531 53 236 0.0 3.0 0.00 0.03 0.02 85 1018.1
20260905043031 53 276 1.0 4.0 0.00 0.03 0.02 84 1018.1
20260905034537 54 129 0.0 2.0 0.00 0.03 0.02 79 1018.0
20260905031529 58 9 3.0 5.0 0.00 0.03 0.02 73 1017.6
20260905030033 58 339 3.0 6.0 0.00 0.03 0.02 73 1017.5
20260905023032 59 312 2.0 5.0 0.00 0.03 0.02 71 1017.4
20260905021536 60 327 2.0 7.0 0.00 0.03 0.02 71 1017.4
20260905020031 60 334 3.0 8.0 0.00 0.03 0.02 70 1017.3
20260905014532 61 338 3.0 7.0 0.00 0.03 0.02 70 1017.1
20260905013029 61 326 3.0 6.0 0.00 0.03 0.02 70 1016.8
20260905001532 63 298 5.0 10.0 0.00 0.03 0.02 66 1016.3
20260905000142 63 295 4.0 9.0 0.00 0.03 0.02 65 1016.2
20260904234532 64 285 3.0 8.0 0.01 0.03 0.02 65 1016.1
20260904233034 62 291 2.0 7.0 0.01 0.03 0.02 66 1016.3
20260904231532 63 246 4.0 9.0 0.01 0.03 0.02 75 1016.3
20260904230031 58 209 4.0 9.0 0.02 0.03 0.01 79 1016.4
20260904224536 58 302 2.0 6.0 0.01 0.02 0.01 78 1016.2
20260904223036 59 300 3.0 6.0 0.01 0.02 0.01 74 1015.9
20260904221536 63 314 2.0 5.0 0.01 0.02 0.00 63 1015.9
20260904214535 70 58 2.0 7.0 0.00 0.01 0.00 52 1015.7
20260904211532 67 52 1.0 6.0 0.00 0.01 0.00 61 1015.7
20260904210029 65 26 3.0 5.0 0.00 0.01 0.00 62 1015.9
20260904203034 67 16 4.0 9.0 0.00 0.01 0.00 58 1015.9
20260904201530 67 12 4.0 8.0 0.00 0.01 0.00 58 1016.0
20260904194536 65 13 4.0 11.0 0.00 0.01 0.00 62 1016.2
20260904193034 65 347 3.0 9.0 0.00 0.01 0.00 62 1016.3
20260904191531 66 337 3.0 10.0 0.00 0.01 0.00 62 1016.3
20260904190035 66 14 3.0 10.0 0.00 0.01 0.00 63 1016.4